VK6DUG Weather Reports


time (UTC)temp
C
wind
direction
speed
KPH
gust
KPH
rain 1hr
cm
rain 24hr
cm
rain mn
cm
humidity
%
barometer
mb
20260510061034 23 21 3.2 6.4 0.00 0.00 0.00 35 1026.2
20260510060032 23 324 3.2 6.4 0.00 0.00 0.00 35 1026.4
20260510055028 23 327 6.4 11.3 0.00 0.00 0.00 36 1026.5
20260510054025 22 316 4.8 12.9 0.00 0.00 0.00 36 1026.6
20260510053021 22 309 8.0 12.9 0.00 0.00 0.00 36 1026.7
20260510052018 22 336 3.2 9.7 0.00 0.00 0.00 36 1026.8
20260510051034 22 320 6.4 17.7 0.00 0.00 0.00 36 1027.0
20260510050032 23 321 4.8 9.7 0.00 0.00 0.00 35 1027.2
20260510045029 22 312 4.8 9.7 0.00 0.00 0.00 37 1027.3
20260510044028 22 325 4.8 11.3 0.00 0.00 0.00 37 1027.4
20260510043024 22 328 3.2 9.7 0.00 0.00 0.00 38 1027.5
20260510042021 22 303 8.0 14.5 0.00 0.00 0.00 38 1027.6
20260510041019 22 310 9.7 17.7 0.00 0.00 0.00 38 1027.9
20260510040016 22 313 6.4 14.5 0.00 0.00 0.00 40 1028.0
20260510035033 22 326 6.4 12.9 0.00 0.00 0.00 40 1028.2
20260510034031 21 326 4.8 9.7 0.00 0.00 0.00 41 1028.4
20260510033028 21 335 4.8 9.7 0.00 0.00 0.00 41 1028.6
20260510032026 21 330 3.2 8.0 0.00 0.00 0.00 43 1028.7
20260510031022 20 1 1.6 4.8 0.00 0.00 0.00 44 1028.7
20260510030018 20 341 3.2 8.0 0.00 0.00 0.00 45 1028.7
20260510025035 20 358 3.2 6.4 0.00 0.00 0.00 45 1028.9
20260510024031 20 331 3.2 8.0 0.00 0.00 0.00 47 1029.0
20260510023028 19 332 1.6 6.4 0.00 0.00 0.00 47 1029.1
20260510022024 19 320 3.2 8.0 0.00 0.00 0.00 48 1029.2
20260510021021 18 354 1.6 4.8 0.00 0.00 0.00 49 1029.3
20260510020017 18 109 1.6 6.4 0.00 0.00 0.00 50 1029.5
20260510015034 18 155 1.6 6.4 0.00 0.00 0.00 51 1029.4
20260510014030 18 166 1.6 4.8 0.00 0.00 0.00 53 1029.5
20260510013026 17 157 3.2 8.0 0.00 0.00 0.00 54 1029.6
20260510012023 17 168 3.2 6.4 0.00 0.00 0.00 55 1029.7
20260510011020 17 146 3.2 6.4 0.00 0.00 0.00 57 1029.7
20260510010017 16 144 3.2 8.0 0.00 0.00 0.00 58 1029.7
20260510005034 16 150 3.2 6.4 0.00 0.00 0.00 61 1029.7
20260510004031 15 156 3.2 8.0 0.00 0.00 0.00 66 1029.7
20260510003028 13 44 4.8 9.7 0.00 0.00 0.00 70 1029.7
20260510002024 13 87 3.2 9.7 0.00 0.00 0.00 72 1029.6
20260510001022 12 182 3.2 8.0 0.00 0.00 0.00 76 1029.5
20260510000018 11 22 6.4 11.3 0.00 0.00 0.00 77 1029.4
20260509235036 10 328 4.8 6.4 0.00 0.00 0.00 77 1029.4
20260509234033 10 5 6.4 8.0 0.00 0.00 0.00 77 1029.3
20260509233030 10 32 8.0 11.3 0.00 0.00 0.00 77 1029.3
20260509232027 10 346 6.4 9.7 0.00 0.00 0.00 77 1029.4
20260509231024 10 118 3.2 6.4 0.00 0.00 0.00 77 1029.3
20260509230022 10 182 3.2 9.7 0.00 0.00 0.00 76 1029.1
20260509225017 10 115 4.8 9.7 0.00 0.00 0.00 76 1029.1
20260509224034 10 161 8.0 11.3 0.00 0.00 0.00 76 1029.2
20260509223032 10 331 3.2 6.4 0.00 0.00 0.00 76 1029.1
20260509222029 10 129 4.8 9.7 0.00 0.00 0.00 76 1029.1
20260509221024 10 26 8.0 11.3 0.00 0.00 0.00 76 1028.9
20260509220018 10 346 4.8 9.7 0.00 0.00 0.00 75 1028.9
20260509215035 10 36 3.2 6.4 0.00 0.00 0.00 75 1028.8
20260509214032 10 352 4.8 9.7 0.00 0.00 0.00 76 1028.7
20260509213028 10 194 4.8 9.7 0.00 0.00 0.00 76 1028.6
20260509212024 10 147 8.0 12.9 0.00 0.00 0.00 77 1028.6
20260509211021 10 317 1.6 6.4 0.00 0.00 0.00 77 1028.6
20260509210018 9 136 3.2 8.0 0.00 0.00 0.00 77 1028.4
20260509205035 10 212 8.0 11.3 0.00 0.00 0.00 76 1028.4
20260509204030 10 60 3.2 6.4 0.00 0.00 0.00 76 1028.3
20260509203026 10 148 4.8 8.0 0.00 0.00 0.00 76 1028.3
20260509202022 10 28 3.2 8.0 0.00 0.00 0.00 77 1028.2
20260509201018 9 55 1.6 3.2 0.00 0.00 0.00 77 1028.0
20260509200034 9 303 0.0 3.2 0.00 0.00 0.00 77 1027.9
20260509195032 8 2 0.0 3.2 0.00 0.00 0.00 76 1028.0
20260509194025 8 56 0.0 3.2 0.00 0.00 0.00 75 1027.9
20260509193020 9 53 1.6 3.2 0.00 0.00 0.00 74 1027.8
20260509192017 10 66 0.0 3.2 0.00 0.00 0.00 73 1028.0
20260509191033 10 26 0.0 4.8 0.00 0.00 0.00 74 1028.0
20260509190030 9 35 1.6 3.2 0.00 0.00 0.00 75 1028.0
20260509185025 9 20 0.0 3.2 0.00 0.00 0.00 75 1028.0
20260509184022 9 0.0 3.2 0.00 0.00 0.00 75 1027.9
20260509183019 9 10 1.6 3.2 0.00 0.00 0.00 74 1028.0
20260509182035 9 340 1.6 3.2 0.00 0.00 0.00 74 1027.9
20260509181032 9 343 0.0 3.2 0.00 0.00 0.00 75 1028.0
20260509180029 9 337 1.6 3.2 0.00 0.00 0.00 75 1028.1
20260509175024 9 10 1.6 3.2 0.00 0.00 0.00 75 1028.1
20260509174021 9 6 1.6 3.2 0.00 0.00 0.00 75 1028.2
20260509173017 9 25 1.6 3.2 0.00 0.00 0.00 75 1028.2
20260509172034 9 337 1.6 3.2 0.00 0.00 0.00 74 1028.3
20260509171031 9 342 1.6 3.2 0.00 0.00 0.00 73 1028.1
20260509170028 9 293 0.0 3.2 0.00 0.00 0.00 73 1028.2
20260509165022 10 357 0.0 3.2 0.00 0.00 0.00 74 1028.2
20260509164018 9 312 0.0 3.2 0.00 0.00 0.00 74 1028.3
20260509163035 10 23 1.6 3.2 0.00 0.00 0.00 73 1028.3
20260509162033 10 347 1.6 3.2 0.00 0.00 0.00 72 1028.3
20260509161029 10 3 1.6 4.8 0.00 0.00 0.00 72 1028.3
20260509160024 10 356 1.6 3.2 0.00 0.00 0.00 71 1028.4
20260509155032 10 14 1.6 3.2 0.00 0.00 0.00 71 1028.4
20260509154035 10 13 0.0 3.2 0.00 0.00 0.00 70 1028.5
20260509153032 10 4 0.0 3.2 0.00 0.00 0.00 71 1028.5
20260509152028 10 322 1.6 3.2 0.00 0.00 0.00 71 1028.6
20260509151022 10 310 0.0 3.2 0.00 0.00 0.00 70 1028.7
20260509150019 10 27 0.0 4.8 0.00 0.00 0.00 70 1028.7
20260509145035 11 16 1.6 3.2 0.00 0.00 0.00 69 1028.8
20260509144032 11 36 1.6 3.2 0.00 0.00 0.00 70 1028.7
20260509143029 11 33 1.6 3.2 0.00 0.00 0.00 71 1028.8
20260509142025 11 37 1.6 4.8 0.00 0.00 0.00 70 1028.8
20260509141021 11 53 1.6 3.2 0.00 0.00 0.00 69 1028.8
20260509140018 11 35 1.6 3.2 0.00 0.00 0.00 67 1028.8
20260509135016 11 40 1.6 3.2 0.00 0.00 0.00 68 1028.8
20260509134033 11 14 3.2 4.8 0.00 0.00 0.00 70 1028.7
20260509133030 11 36 0.0 3.2 0.00 0.00 0.00 69 1028.8
20260509132026 11 17 0.0 3.2 0.00 0.00 0.00 68 1028.6
20260509131023 11 26 0.0 3.2 0.00 0.00 0.00 69 1028.7
20260509130022 11 43 0.0 3.2 0.00 0.00 0.00 68 1028.6
20260509125017 11 56 1.6 3.2 0.00 0.00 0.00 67 1028.4
20260509124033 12 63 1.6 3.2 0.00 0.00 0.00 66 1028.5
20260509123030 12 58 1.6 3.2 0.00 0.00 0.00 65 1028.4
20260509122027 12 50 3.2 4.8 0.00 0.00 0.00 65 1028.4
20260509121022 12 72 1.6 3.2 0.00 0.00 0.00 65 1028.3
20260509120019 12 72 1.6 3.2 0.00 0.00 0.00 66 1028.2
20260509115035 13 75 1.6 3.2 0.00 0.00 0.00 64 1028.2
20260509114031 13 77 0.0 3.2 0.00 0.00 0.00 64 1028.2
20260509113029 14 84 0.0 3.2 0.00 0.00 0.00 63 1028.1
20260509112023 15 84 0.0 3.2 0.00 0.00 0.00 60 1028.1
20260509111020 15 72 1.6 3.2 0.00 0.00 0.00 61 1028.1
20260509110016 15 61 1.6 4.8 0.00 0.00 0.00 59 1028.1
20260509105033 15 70 1.6 4.8 0.00 0.00 0.00 61 1028.1
20260509104029 15 80 0.0 3.2 0.00 0.00 0.00 60 1028.1
20260509103024 15 89 1.6 3.2 0.00 0.00 0.00 58 1028.0
20260509102019 15 83 1.6 3.2 0.00 0.00 0.00 56 1028.1
20260509101035 16 90 0.0 3.2 0.00 0.00 0.00 56 1028.0
20260509100032 17 142 1.6 3.2 0.00 0.00 0.00 55 1027.9
20260509095028 17 143 1.6 3.2 0.00 0.00 0.00 52 1027.9
20260509094023 18 147 3.2 6.4 0.00 0.00 0.00 50 1027.8
20260509093019 19 158 3.2 6.4 0.00 0.00 0.00 47 1027.6
20260509092015 20 139 1.6 3.2 0.00 0.00 0.00 45 1027.7
20260509091032 21 98 1.6 3.2 0.00 0.00 0.00 43 1027.8
20260509090029 22 86 0.0 3.2 0.00 0.00 0.00 39 1027.8
20260509085026 23 27 0.0 3.2 0.00 0.00 0.00 36 1027.6
20260509084022 23 12 0.0 1.6 0.00 0.00 0.00 34 1027.7
20260509083016 23 34 0.0 3.2 0.00 0.00 0.00 33 1027.7
20260509082033 24 23 1.6 4.8 0.00 0.00 0.00 33 1027.7
20260509081029 25 330 0.0 3.2 0.00 0.00 0.00 32 1027.6
20260509080026 23 309 1.6 4.8 0.00 0.00 0.00 33 1027.6
20260509075024 23 338 1.6 4.8 0.00 0.00 0.00 33 1027.6
20260509074019 23 33 1.6 4.8 0.00 0.00 0.00 32 1027.4
20260509073016 24 337 1.6 6.4 0.00 0.00 0.00 32 1027.5
20260509072032 23 329 1.6 4.8 0.00 0.00 0.00 33 1027.4
20260509071029 23 21 1.6 6.4 0.00 0.00 0.00 34 1027.3
20260509070025 23 18 1.6 6.4 0.00 0.00 0.00 34 1027.3
20260509065022 23 72 4.8 12.9 0.00 0.00 0.00 35 1027.1
20260509064019 23 12 1.6 4.8 0.00 0.00 0.00 35 1027.1
20260509063017 23 64 3.2 8.0 0.00 0.00 0.00 35 1027.0
20260509062034 23 319 4.8 9.7 0.00 0.00 0.00 33 1027.0